Regional Weather Roundup
Issued by NWS

Home | Current Version | Previous Version | Graphics & Text | Print | Product List | Glossary On
Versions: 1 2 3 4 5 6 7 8 9 10 11 12 13 14 15 16 17 18 19 20 21 22 23 24 25 26 27 28 29 30 31 32 33 34 35 36 37 38 39 40 41 42 43 44 45 46 47 48 49 50
119
ASUS43 KFSD 281502
RWRSD

WEATHER ROUNDUP FOR SOUTH DAKOTA
NATIONAL WEATHER SERVICE SIOUX FALLS SD
1000 AM CDT WED SEP 28 2016

NOTE: "FAIR" INDICATES FEW OR NO CLOUDS BELOW 12,000 FEET WITH NO
SIGNIFICANT WEATHER AND/OR OBSTRUCTIONS TO VISIBILITY.


SDZ001>005-009-010-012>017-281600-
NORTHWEST AND NORTH CENTRAL SOUTH DAKOTA

CITY           SKY/WX    TMP DP  RH WIND       PRES   REMARKS
BUFFALO          N/A     65  47  52 NW8       30.18
FAITH            N/A     56  39  53 S9        30.23
MOBRIDGE       SUNNY     54  43  66 E6        30.24
$$

SDZ012>016-024>037-041>051-057-063-072>074-281600-
SOUTHWEST AND SOUTH CENTRAL SOUTH DAKOTA

CITY           SKY/WX    TMP DP  RH WIND       PRES   REMARKS
RAPID CTY ARPT SUNNY     65  46  50 SE3       30.24
PIERRE         SUNNY     51  41  68 E7        30.24
CUSTER         SUNNY     64  40  41 N5        30.35
ELLSWORTH AFB  SUNNY     64  46  50 SE2       30.24R HAZE
PHILIP         SUNNY     53  44  71 SE3       30.24
PINE RIDGE     SUNNY     56  44  64 CALM      30.26
WINNER         FAIR      55  42  61 E6        30.24
$$

SDZ004>011-016>023-039-040-281600-
NORTHEAST SOUTH DAKOTA

CITY           SKY/WX    TMP DP  RH WIND       PRES   REMARKS
ABERDEEN       SUNNY     50  42  74 NE7       30.28
WATERTOWN      SUNNY     51  44  77 MISG      30.22R
SISSETON         N/A     46  43  89 N8        30.25
$$

SDZ017-020-022-023-036>040-048>070-281600-
SOUTHEAST SOUTH DAKOTA

CITY           SKY/WX    TMP DP  RH WIND       PRES   REMARKS
SIOUX FALLS    MOSUNNY   51  44  77 N15       30.21
HURON          PTSUNNY   52  44  74 N6        30.25
CHAMBERLAIN    SUNNY     53  45  74 NE6       30.25R
MITCHELL       CLOUDY    50  44  80 N7        30.25
YANKTON        SUNNY     52  45  76 N10       30.20R
$$

ABBREVIATIONS USED IN REMARKS
   TC - TEMPERATURE IN CELSIUS
  WCI - WIND CHILL INDEX
   HX - HEAT INDEX
  VSB - VISIBILITY





USA.gov is the U.S. government's official web portal to all federal, state and local government web resources and services.